Location: Stoke Bliss
(52.2667°N, 2.5167°W)
Time: 12:32:52
(UTC+00:00)

Helios 1A Rocket - Pass Details

Date: 03 March 2021
Orbit: 563 x 585 km, 98.3° (Epoch: 13 April)

Event Time Altitude Azimuth Distance (km) Brightness Sun altitude
Rises 19:15:10 0° 171° (S) 2,768 6.2 -13.3°
Reaches altitude 10° 19:17:19 10° 174° (S) 1,871 5.4 -13.6°
Maximum altitude 19:21:20 65° 257° (WSW) 630 3.3 -14.2°
Drops below altitude 10° 19:25:23 10° 340° (NNW) 1,876 5.9 -14.8°
Sets 19:27:33 0° 343° (NNW) 2,776 6.8 -15.2°
